Location: Taupo
(38.6830°S, 176.0830°E)
Time: 17:45:30
(UTC+13:00)

Cosmos 2181 Rocket - Pass Details

Date: 24 January 2019
Orbit: 953 x 1014 km, 82.9° (Epoch: 14 October)

Event Time Altitude Azimuth Distance (km) Brightness Sun altitude
Rises 23:26:16 0° 184° (S) 3,674 8.0 -25.5°
Reaches altitude 10° 23:28:50 10° 179° (S) 2,727 7.1 -25.7°
Maximum altitude 23:35:00 60° 99° (E) 1,109 4.1 -26.4°
Enters shadow 23:35:35 58° 74° (ENE) 1,134 4.0 -26.4°
